Torna al catalogo

THORAD DELTA 1 DEB

AttivoSSO
NORAD 8144·DEBRIS·🇺🇸 United States

Lanciato Nov 15, 1974 da Vandenberg Space Force Base

Loading…

Prossimi Passaggi (prossime 24 ore)

TLE

AggiornatoSource: Space-Track

Epoca: Sep 13, 2026, 20:01 UTC

1 08144U 74089N   26256.83443969  .00000020  00000-0  39006-3 0  9995
2 08144 101.7724 208.1683 0151898  36.1472 350.8996 12.53941761370463

Traccia THORAD DELTA 1 DEB in tempo reale con AllMySat

Download on the App Store